[[{"header":{"parameterUnit":"m.s-1","parameterCategory":1,"la1":30.2991,"la2":30.254,"lo1":-89.0895,"lo2":-89.0444,"dy":0.0017,"dx":0.0017,"nx":28,"ny":28,"refTime":"2023-09-22T09:00:00:Z","depth":0,"parameterNumber":2,"parameterNumberName":"U-component_of_WINDS"},"data":[0,0,0,0,0,0,0,0,0,0,0,0,0,0,0,0,0,0,0,0,0,0,0,0,0,0,0,0,0,0,0,0,0,0,0,0,0,0,0,0,0,0,0,0,0,0,0,0,0,0,0,0,0,0,0,0,0,0,-2.4194,-2.4194,0,-2.4184,-2.4184,-2.4184,-2.4135,-2.4134,-2.4133,-2.4132,-2.4121,-2.4122,-2.4123,0,0,0,0,0,0,0,0,0,0,0,0,0,-2.4172,-2.4173,-2.4194,-2.4194,-2.4194,-2.4184,-2.4184,-2.4184,-2.4135,-2.4134,-2.4132,-2.4131,-2.4121,-2.4122,-2.4123,0,0,0,0,0,0,0,0,0,0,0,0,0,-2.4174,-2.4173,-2.4194,-2.4168,-2.4166,-2.4184,-2.4184,-2.4184,-2.4136,-2.4134,-2.4132,-2.413,-2.4121,-2.4122,-2.4123,-2.4165,0,0,-2.4127,-2.4127,0,0,0,0,0,0,0,0,-2.4174,-2.4175,-2.4172,-2.417,-2.4168,-2.4159,-2.4172,-2.4178,-2.4136,-2.4147,-2.4132,-2.413,-2.4135,-2.4135,-2.4137,-2.4165,-2.4164,-2.4127,-2.4128,-2.4128,-2.4129,0,0,0,0,0,0,0,-2.4174,-2.4175,-2.419,-2.4172,-2.4169,-2.4158,-2.4156,-2.4173,-2.4151,-2.4146,-2.4142,-2.4142,-2.4134,-2.4136,-2.4137,-2.4164,-2.4127,-2.4128,-2.4129,-2.4129,-2.4228,-2.4229,0,0,0,0,0,0,-2.4177,-2.4175,-2.419,-2.419,-2.4166,-2.416,-2.4158,-2.4163,-2.4151,-2.4147,-2.4143,-2.414,-2.4135,-2.4135,-2.4136,-2.4186,-2.4128,-2.4129,-2.413,-2.4226,-2.4228,-2.423,0,0,0,0,0,0,-2.4177,-2.4179,-2.4191,-2.4181,-2.4182,-2.4162,-2.4169,-2.4164,-2.4167,-2.4149,-2.4145,-2.415,-2.4134,-2.4134,-2.4159,-2.4185,-2.413,-2.4131,-2.4223,-2.4226,-2.4229,-2.4285,0,0,0,0,0,0,-2.4176,-2.4179,-2.4195,-2.4182,-2.4183,-2.4214,-2.417,-2.4165,-2.4169,-2.4164,-2.4154,-2.415,-2.4132,-2.4157,-2.416,-2.4185,-2.4132,-2.4221,-2.4225,-2.4228,-2.4281,-2.4289,-2.4297,0,0,0,0,0,-2.4176,-2.421,-2.4196,-2.4198,-2.4202,-2.4215,-2.4215,-2.4194,-2.4171,-2.4187,-2.4176,-2.4151,-2.4181,-2.416,-2.4163,-2.4189,-2.4219,-2.4224,-2.4228,-2.4277,-2.4288,-2.4297,0,0,0,0,0,0,-2.4226,-2.4208,-2.4192,-2.4223,-2.4221,-2.4207,-2.4226,-2.4205,-2.421,-2.4205,-2.4178,-2.4176,-2.4205,-2.4199,-2.4176,-2.423,-2.4196,-2.4201,-2.4233,-2.4243,-2.425,-2.4252,-2.4133,0,0,0,0,0,-2.4241,-2.4253,-2.4237,-2.4266,-2.4266,-2.4247,-2.4251,-2.4235,-2.4232,-2.4231,-2.4221,-2.4219,-2.4228,-2.4235,-2.4242,-2.4279,-2.4277,-2.4299,-2.4307,-2.4313,-2.4318,-2.4339,-2.4349,-2.4244,-2.4244,-2.4244,0,0,-2.4271,-2.4263,-2.4273,-2.4276,-2.4273,-2.4287,-2.4246,-2.4262,-2.4272,-2.4233,-2.4256,-2.4249,-2.4245,-2.4277,-2.429,-2.4273,-2.4347,-2.4319,-2.4324,-2.4326,-2.4345,-2.4355,-2.4364,-2.4247,-2.4246,-2.4246,0,0,-2.4335,-2.4329,-2.4354,-2.4351,-2.4347,-2.4334,-2.434,-2.4329,-2.4323,-2.4346,-2.4317,-2.4329,-2.4345,-2.4344,-2.4345,-2.4409,-2.4388,-2.4412,-2.4455,-2.4476,-2.4484,-2.4491,-2.4516,-2.4525,-2.4417,-2.4417,-2.4417,0,-2.4373,-2.4393,-2.4369,-2.4388,-2.4391,-2.4356,-2.4382,-2.438,-2.4378,-2.4382,-2.4362,-2.4383,-2.4377,-2.4409,-2.4425,-2.4427,-2.4434,-2.4414,-2.4485,-2.4492,-2.4498,-2.4521,-2.4531,-2.4421,-2.442,-2.442,-2.442,0,-2.4442,-2.4456,-2.4477,-2.4477,-2.4482,-2.4504,-2.4484,-2.4492,-2.4475,-2.4464,-2.4489,-2.4481,-2.4487,-2.4493,-2.4477,-2.4523,-2.4513,-2.4489,-2.4455,-2.4512,-2.4533,-2.4542,-2.4425,-2.4424,-2.4423,-2.4422,0,0,-2.4536,-2.4523,-2.4532,-2.4532,-2.4525,-2.4536,-2.4556,-2.4563,-2.4571,-2.4571,-2.4588,-2.4603,-2.4582,-2.4584,-2.4567,-2.4585,-2.4639,-2.456,-2.4559,-2.4576,-2.4692,-2.4711,-2.4721,-2.4624,-2.4625,-2.4627,-2.4693,0,-2.4598,-2.4633,-2.4613,-2.4651,-2.4665,-2.4633,-2.4651,-2.4649,-2.464,-2.465,-2.464,-2.4652,-2.4622,-2.4623,-2.4639,-2.4629,-2.4662,-2.4624,-2.4641,-2.4642,-2.4645,-2.4732,-2.4752,-2.4814,-2.4701,-2.4702,-2.4703,0,-2.4675,-2.4679,-2.4719,-2.4711,-2.4716,-2.4733,-2.4738,-2.4748,-2.4746,-2.4738,-2.4741,-2.472,-2.474,-2.4706,-2.4734,-2.4709,-2.4715,-2.4711,-2.4713,-2.4715,-2.4677,-2.4738,-2.4833,-2.4844,-2.4716,-2.4715,-2.4714,0,-2.4742,-2.4758,-2.4784,-2.4785,-2.4776,-2.4789,-2.4786,-2.4781,-2.4787,-2.4791,-2.4795,-2.4801,-2.4805,-2.4811,-2.4793,-2.4769,-2.4825,-2.4788,-2.482,-2.482,-2.4834,-2.4834,-2.4934,-2.4835,-2.4835,-2.4835,-2.4835,0,-2.4814,-2.4841,-2.4815,-2.4831,-2.486,-2.4836,-2.4866,-2.4859,-2.4856,-2.4871,-2.4842,-2.4857,-2.4831,-2.4844,-2.483,-2.4857,-2.4858,-2.4853,-2.4849,-2.4857,-2.4858,-2.4861,-2.4857,-2.4837,-2.4837,-2.4836,-2.4836,0,-2.4895,-2.4878,-2.4905,-2.4895,-2.4893,-2.4915,-2.4906,-2.4921,-2.491,-2.4929,-2.4932,-2.4915,-2.4929,-2.4911,-2.4922,-2.4912,-2.495,-2.4939,-2.4951,-2.4949,-2.4982,-2.498,-2.5089,-2.5103,-2.4994,-2.4995,-2.4996,0,-2.4943,-2.4962,-2.4954,-2.4963,-2.4961,-2.4975,-2.4981,-2.4958,-2.4966,-2.4965,-2.4981,-2.4992,-2.5,-2.5022,-2.5011,-2.502,-2.501,-2.5047,-2.5011,-2.5018,-2.5013,-2.5013,-2.5015,-2.5056,-2.5057,-2.5058,-2.5059,0,-2.503,-2.5021,-2.5031,-2.5039,-2.5047,-2.5052,-2.5054,-2.5063,-2.5039,-2.5049,-2.5063,-2.5069,-2.5081,-2.5093,-2.5099,-2.5096,-2.5074,-2.507,-2.5078,-2.5087,-2.5094,-2.5093,-2.4974,-2.5068,-2.5067,-2.5066,-2.5066,-2.5066,-2.5097,-2.5113,-2.5111,-2.5123,-2.5123,-2.5127,-2.5141,-2.5132,-2.5143,-2.5152,-2.5138,-2.5156,-2.5154,-2.516,-2.5159,-2.5173,-2.5157,-2.5168,-2.5171,-2.5175,-2.5181,-2.5091,-2.5174,-2.5173,-2.5173,-2.5173,-2.5173,0,-2.5184,-2.5181,-2.5193,-2.5198,-2.5208,-2.5187,-2.5189,-2.5199,-2.5215,-2.5215,-2.5224,-2.524,-2.5252,-2.5242,-2.5252,-2.5265,-2.5256,-2.5269,-2.5268,-2.5268,-2.5194,-2.5187,-2.5276,-2.5276,-2.5276,-2.5276,-2.5276,-2.5276,-2.5231,-2.5259,-2.525,-2.5278,-2.5275,-2.5293,-2.5296,-2.53,-2.53,-2.532,-2.533,-2.5323,-2.5319,-2.5329,-2.5339,-2.5336,-2.5342,-2.5359,-2.5352,-2.5283,-2.5273,-2.5264,-2.5257,-2.536,-2.536,-2.5426,-2.5426,-2.5427]},{"header":{"parameterUnit":"m.s-1","parameterCategory":1,"la1":30.2991,"la2":30.254,"lo1":-89.0895,"lo2":-89.0444,"dy":0.0017,"dx":0.0017,"nx":28,"ny":28,"refTime":"2023-09-22T09:00:00:Z","depth":0,"parameterNumber":3,"parameterNumberName":"V-component_of_WINDS"},"data":[0,0,0,0,0,0,0,0,0,0,0,0,0,0,0,0,0,0,0,0,0,0,0,0,0,0,0,0,0,0,0,0,0,0,0,0,0,0,0,0,0,0,0,0,0,0,0,0,0,0,0,0,0,0,0,0,0,0,-1.3395,-1.3395,0,-1.3386,-1.3386,-1.3386,-1.3345,-1.3344,-1.3343,-1.3342,-1.3335,-1.3336,-1.3336,0,0,0,0,0,0,0,0,0,0,0,0,0,-1.3377,-1.3378,-1.3395,-1.3395,-1.3394,-1.3386,-1.3386,-1.3386,-1.3345,-1.3344,-1.3343,-1.3342,-1.3335,-1.3336,-1.3337,0,0,0,0,0,0,0,0,0,0,0,0,0,-1.3378,-1.3378,-1.3395,-1.3373,-1.3371,-1.3386,-1.3386,-1.3386,-1.3345,-1.3344,-1.3343,-1.3341,-1.3335,-1.3336,-1.3337,-1.3372,0,0,-1.334,-1.334,0,0,0,0,0,0,0,0,-1.3378,-1.3379,-1.3376,-1.3375,-1.3372,-1.3365,-1.3377,-1.3381,-1.3346,-1.3355,-1.3342,-1.334,-1.3346,-1.3346,-1.3348,-1.3372,-1.3372,-1.334,-1.3341,-1.3341,-1.3341,0,0,0,0,0,0,0,-1.3378,-1.3379,-1.3391,-1.3376,-1.3374,-1.3364,-1.3363,-1.3378,-1.3359,-1.3354,-1.3351,-1.3351,-1.3345,-1.3347,-1.3348,-1.3371,-1.334,-1.3341,-1.3342,-1.3342,-1.3424,-1.3426,0,0,0,0,0,0,-1.3381,-1.338,-1.3391,-1.3391,-1.3372,-1.3366,-1.3364,-1.3369,-1.3359,-1.3356,-1.3352,-1.3349,-1.3346,-1.3346,-1.3347,-1.3388,-1.3341,-1.3342,-1.3343,-1.3423,-1.3424,-1.3426,0,0,0,0,0,0,-1.3381,-1.3383,-1.3392,-1.3384,-1.3385,-1.3368,-1.3373,-1.3369,-1.3371,-1.3357,-1.3354,-1.3357,-1.3345,-1.3346,-1.3366,-1.3387,-1.3343,-1.3344,-1.3421,-1.3423,-1.3425,-1.3471,0,0,0,0,0,0,-1.3381,-1.3383,-1.3396,-1.3385,-1.3385,-1.3411,-1.3375,-1.337,-1.3373,-1.3369,-1.3361,-1.3359,-1.3344,-1.3365,-1.3367,-1.3388,-1.3344,-1.3419,-1.3422,-1.3424,-1.3467,-1.3474,-1.348,0,0,0,0,0,-1.338,-1.3409,-1.3397,-1.3398,-1.3401,-1.3412,-1.3412,-1.3394,-1.3375,-1.3388,-1.3379,-1.3359,-1.3384,-1.3367,-1.337,-1.3391,-1.3417,-1.3421,-1.3424,-1.3464,-1.3473,-1.348,0,0,0,0,0,0,-1.3424,-1.3408,-1.3393,-1.342,-1.3418,-1.3405,-1.3421,-1.3404,-1.3408,-1.3404,-1.3381,-1.338,-1.3404,-1.3399,-1.338,-1.3425,-1.3397,-1.3402,-1.3427,-1.3435,-1.3441,-1.3442,-1.3345,0,0,0,0,0,-1.3437,-1.3446,-1.3432,-1.3457,-1.3456,-1.3439,-1.3443,-1.3429,-1.3426,-1.3425,-1.3417,-1.3416,-1.3423,-1.3429,-1.3435,-1.3466,-1.3464,-1.3482,-1.3488,-1.3494,-1.3498,-1.3514,-1.3522,-1.3437,-1.3437,-1.3437,0,0,-1.3463,-1.3455,-1.3463,-1.3465,-1.3462,-1.3473,-1.3438,-1.3452,-1.346,-1.3427,-1.3446,-1.344,-1.3437,-1.3463,-1.3474,-1.346,-1.3521,-1.3498,-1.3503,-1.3504,-1.3519,-1.3527,-1.3534,-1.344,-1.3439,-1.3439,0,0,-1.3517,-1.3512,-1.3532,-1.3529,-1.3524,-1.3513,-1.3517,-1.3507,-1.3502,-1.352,-1.3496,-1.3506,-1.3519,-1.3518,-1.3519,-1.3572,-1.3554,-1.3574,-1.3609,-1.3625,-1.3632,-1.3638,-1.3657,-1.3664,-1.3578,-1.3579,-1.3579,0,-1.3551,-1.3566,-1.3545,-1.356,-1.3561,-1.3531,-1.3552,-1.355,-1.3548,-1.355,-1.3534,-1.355,-1.3546,-1.3571,-1.3584,-1.3586,-1.3591,-1.3576,-1.3632,-1.3638,-1.3643,-1.3661,-1.3669,-1.3581,-1.3581,-1.3581,-1.358,0,-1.3608,-1.3619,-1.3636,-1.3634,-1.3637,-1.3655,-1.3636,-1.3643,-1.3628,-1.3618,-1.3638,-1.3631,-1.3635,-1.364,-1.3627,-1.3664,-1.3655,-1.3636,-1.3608,-1.3654,-1.3671,-1.3678,-1.3585,-1.3584,-1.3583,-1.3582,0,0,-1.3691,-1.3676,-1.3682,-1.3681,-1.3673,-1.3681,-1.3697,-1.3701,-1.3707,-1.3706,-1.3719,-1.3731,-1.3713,-1.3714,-1.37,-1.3714,-1.3757,-1.3693,-1.3693,-1.3706,-1.3798,-1.3813,-1.3821,-1.3744,-1.3745,-1.3746,-1.3798,0,-1.3743,-1.3769,-1.375,-1.378,-1.379,-1.3761,-1.3775,-1.3772,-1.3763,-1.3771,-1.3761,-1.377,-1.3745,-1.3746,-1.3758,-1.3749,-1.3775,-1.3745,-1.3757,-1.3758,-1.376,-1.383,-1.3846,-1.3895,-1.3805,-1.3806,-1.3806,0,-1.3807,-1.3808,-1.3839,-1.3829,-1.3832,-1.3845,-1.3847,-1.3854,-1.385,-1.3842,-1.3843,-1.3825,-1.3841,-1.3813,-1.3834,-1.3814,-1.3818,-1.3814,-1.3815,-1.3816,-1.3786,-1.3833,-1.391,-1.3918,-1.3816,-1.3816,-1.3815,0,-1.3865,-1.3874,-1.3894,-1.3893,-1.3881,-1.3891,-1.3887,-1.3881,-1.3884,-1.3886,-1.3888,-1.3891,-1.3894,-1.3897,-1.3881,-1.3862,-1.3904,-1.3875,-1.3899,-1.39,-1.391,-1.391,-1.3989,-1.3911,-1.3911,-1.3911,-1.3911,0,-1.3926,-1.3946,-1.3919,-1.3932,-1.3953,-1.3931,-1.3953,-1.3946,-1.3941,-1.3951,-1.3927,-1.3937,-1.3915,-1.3923,-1.391,-1.393,-1.3931,-1.3926,-1.3922,-1.3929,-1.3929,-1.3931,-1.3928,-1.3913,-1.3913,-1.3912,-1.3912,0,-1.3994,-1.3977,-1.3997,-1.3984,-1.3981,-1.3997,-1.3986,-1.3997,-1.3986,-1.4,-1.4002,-1.3985,-1.3993,-1.3977,-1.3983,-1.3975,-1.4003,-1.3993,-1.4004,-1.4002,-1.4027,-1.4025,-1.4111,-1.4121,-1.4037,-1.4037,-1.4038,0,-1.4034,-1.4049,-1.4037,-1.4042,-1.4039,-1.4047,-1.405,-1.4029,-1.4033,-1.4029,-1.404,-1.4046,-1.405,-1.4065,-1.4054,-1.4059,-1.405,-1.408,-1.4051,-1.4056,-1.4051,-1.4051,-1.4052,-1.4086,-1.4087,-1.4088,-1.4089,0,-1.4108,-1.4098,-1.4103,-1.4105,-1.4109,-1.411,-1.4109,-1.4114,-1.4092,-1.4098,-1.4106,-1.4109,-1.4115,-1.4121,-1.4123,-1.4119,-1.4101,-1.4098,-1.4104,-1.411,-1.4116,-1.4114,-1.4021,-1.4096,-1.4095,-1.4095,-1.4094,-1.4094,-1.4164,-1.4175,-1.4168,-1.4175,-1.4171,-1.4171,-1.418,-1.417,-1.4176,-1.4179,-1.4166,-1.4177,-1.4172,-1.4173,-1.4171,-1.4179,-1.4166,-1.4175,-1.4177,-1.4179,-1.4184,-1.4114,-1.4179,-1.4179,-1.4179,-1.4179,-1.4179,0,-1.4236,-1.423,-1.4236,-1.4235,-1.424,-1.422,-1.4218,-1.4224,-1.4233,-1.423,-1.4234,-1.4243,-1.4249,-1.4238,-1.4243,-1.4252,-1.4243,-1.4254,-1.4253,-1.4253,-1.4195,-1.419,-1.426,-1.426,-1.426,-1.426,-1.426,-1.426,-1.4274,-1.4293,-1.4283,-1.43,-1.4293,-1.4303,-1.4304,-1.4303,-1.4301,-1.4312,-1.4316,-1.4309,-1.4302,-1.4306,-1.4311,-1.4307,-1.4311,-1.4324,-1.4318,-1.4265,-1.4257,-1.4249,-1.4244,-1.4325,-1.4325,-1.4375,-1.4375,-1.4376]}]]